Location: Unspecified
(54.1780°N, 0.0000°E)
Time: 19:00:24
(UTC+00:00)

Explorer 7 - Pass Details

Date: 22 June 2019
Orbit: 485 x 680 km, 50.3° (Epoch: 20 August)

Event Time Altitude Azimuth Distance (km) Brightness Sun altitude
Rises 08:40:45 0° 208° (SSW) 2,765 10.3 41.7°
Reaches altitude 10° 08:43:25 10° 191° (S) 1,910 9.8 42.1°
Maximum altitude 08:46:35 20° 144° (SE) 1,432 10.0 42.5°
Drops below altitude 10° 08:49:53 10° 98° (E) 2,006 10.7 43.0°
Sets 08:52:47 0° 82° (E) 2,953 11.2 43.4°
